Location: Arborea
(39.7744°N, 8.5819°E)
Time: 19:22:05
(UTC+00:00)

CZ-2C DEB - Pass Details

Date: 19 August 2022
Orbit: 681 x 927 km, 97.9° (Epoch: 03 October)

Event Time Altitude Azimuth Distance (km) Brightness Sun altitude
Rises 22:39:35 0° 354° (N) 3,254 ? -36.4°
Reaches altitude 10° 22:42:34 10° 335° (NNW) 2,369 ? -36.6°
Maximum altitude 22:45:54 17° 295° (WNW) 1,943 ? -36.7°
Enters shadow 22:46:12 17° 291° (WNW) 1,951 ? -36.7°
